Terug naar catalogus

FENGYUN 1C DEB

ActiefSSO
NORAD 35173·DEBRIS·🇨🇳 China

Gelanceerd May 10, 1999 vanaf Taiyuan Satellite Launch Center

Loading…

Volgende Passages (komende 24 uur)

TLE

VersSource: Space-Track

Epoch: Sep 11, 2026, 09:39 UTC

1 35173U 99025DND 26254.40258687  .00000852  00000-0  85430-3 0  9991
2 35173  99.7719 321.4830 0486135 269.0630  85.4790 13.38185926694757

Volg FENGYUN 1C DEB in realtime met AllMySat

Download on the App Store